GW0007 Weather Reports


Display with metric or nautical units.
time (UTC)temp
F
wind
direction
speed
MPH
gust
MPH
rain 1hr
in
rain 24hr
in
rain mn
in
humidity
%
barometer
mb
20260901094551 49 250 1.0 3.0 0.00 0.00 0.00 74 1015.9
20260901093057 50 0 0.0 2.0 0.00 0.00 0.00 71 1015.9
20260901091548 50 210 1.0 3.0 0.00 0.00 0.00 72 1015.8
20260901090053 50 0 1.0 1.0 0.00 0.00 0.00 73 1015.8
20260901084549 52 155 0.0 4.0 0.00 0.00 0.00 67 1015.8
20260901083046 52 152 2.0 4.0 0.00 0.00 0.00 66 1015.6
20260901081545 53 75 1.0 4.0 0.00 0.00 0.00 65 1015.3
20260901080046 54 87 2.0 6.0 0.00 0.00 0.00 62 1015.5
20260901074544 54 79 4.0 9.0 0.00 0.00 0.00 60 1015.5
20260901073053 55 62 7.0 10.0 0.00 0.00 0.00 59 1015.6
20260901071550 55 70 5.0 9.0 0.00 0.00 0.00 58 1015.7
20260901070132 54 74 3.0 10.0 0.00 0.00 0.00 61 1015.7
20260901064554 55 51 3.0 12.0 0.00 0.00 0.00 58 1015.7
20260901063046 55 86 3.0 6.0 0.00 0.00 0.00 60 1015.8
20260901061548 56 84 2.0 8.0 0.00 0.00 0.00 59 1015.7
20260901060054 57 76 4.0 7.0 0.00 0.00 0.00 55 1015.5
20260901054549 57 81 2.0 3.0 0.00 0.00 0.00 55 1015.5
20260901053048 58 94 1.0 5.0 0.00 0.00 0.00 53 1015.6
20260901051552 59 70 3.0 5.0 0.00 0.00 0.00 51 1015.8
20260901050047 60 63 4.0 8.0 0.00 0.00 0.00 49 1016.0
20260901044617 60 38 4.0 6.0 0.00 0.00 0.00 49 1016.0
20260901043056 61 79 1.0 2.0 0.00 0.00 0.00 47 1016.1
20260901041551 62 100 0.0 1.0 0.00 0.00 0.00 47 1016.1
20260901040051 63 0 0.0 2.0 0.00 0.00 0.00 46 1016.0
20260901034546 64 60 2.0 4.0 0.00 0.00 0.00 46 1015.8
20260901033055 64 32 2.0 4.0 0.00 0.00 0.00 45 1015.6
20260901031554 64 70 2.0 4.0 0.00 0.00 0.00 46 1015.5
20260901030053 66 55 2.0 4.0 0.00 0.00 0.00 44 1015.3
20260901024547 67 82 2.0 5.0 0.00 0.00 0.00 45 1015.0
20260901023055 70 0 0.0 3.0 0.00 0.00 0.00 35 1014.8
20260901021554 72 133 3.0 6.0 0.00 0.00 0.00 31 1014.6
20260901020043 74 139 4.0 7.0 0.00 0.00 0.00 30 1014.4
20260901014554 75 115 4.0 9.0 0.00 0.00 0.00 29 1014.6
20260901013045 76 109 6.0 9.0 0.00 0.00 0.00 28 1014.5
20260901011604 77 119 4.0 8.0 0.00 0.00 0.00 27 1014.4
20260901010050 78 110 5.0 8.0 0.00 0.00 0.00 26 1014.4
20260901004602 79 103 5.0 8.0 0.00 0.00 0.00 25 1014.2
20260901003048 80 129 4.0 8.0 0.00 0.00 0.00 23 1014.3
20260901001547 80 107 4.0 7.0 0.00 0.00 0.00 23 1014.3
20260901000053 80 115 6.0 9.0 0.00 0.00 0.00 21 1014.6
20260831234550 81 128 4.0 10.0 0.00 0.00 0.00 21 1014.6
20260831233045 83 201 2.0 6.0 0.00 0.00 0.00 18 1014.7
20260831231546 82 302 2.0 8.0 0.00 0.00 0.00 22 1014.8
20260831230050 82 243 3.0 9.0 0.00 0.00 0.00 18 1015.0
20260831224547 81 179 6.0 10.0 0.00 0.00 0.00 19 1015.1
20260831223055 80 321 2.0 8.0 0.00 0.00 0.00 21 1015.1
20260831221547 80 316 6.0 8.0 0.00 0.00 0.00 22 1015.2
20260831220045 79 285 5.0 19.0 0.00 0.00 0.00 22 1015.3
20260831214613 78 349 5.0 17.0 0.00 0.00 0.00 24 1015.4
20260831213056 78 343 7.0 17.0 0.00 0.00 0.00 21 1015.5
20260831211549 77 339 12.0 18.0 0.00 0.00 0.00 22 1015.8
20260831210045 77 273 7.0 17.0 0.00 0.00 0.00 21 1015.9
20260831204559 76 338 7.0 16.0 0.00 0.00 0.00 23 1016.2
20260831203053 75 319 12.0 18.0 0.00 0.00 0.00 21 1016.4
20260831201550 76 287 9.0 18.0 0.00 0.00 0.00 24 1016.4
20260831200049 75 304 12.0 20.0 0.00 0.00 0.00 23 1016.4
20260831194554 74 306 13.0 21.0 0.00 0.00 0.00 25 1016.7
20260831193046 75 314 9.0 20.0 0.00 0.00 0.00 21 1016.7
20260831191547 74 276 9.0 19.0 0.00 0.00 0.00 21 1017.0
20260831190111 74 315 8.0 20.0 0.00 0.00 0.00 27 1017.0
20260831184552 73 217 7.0 19.0 0.00 0.00 0.00 23 1017.0
20260831183100 72 296 9.0 21.0 0.00 0.00 0.00 26 1017.2
20260831181555 72 294 9.0 20.0 0.00 0.00 0.00 25 1017.4
20260831180056 71 303 12.0 22.0 0.00 0.00 0.00 22 1017.5
20260831174545 71 278 10.0 19.0 0.00 0.00 0.00 23 1017.6
20260831173044 70 278 9.0 17.0 0.00 0.00 0.00 26 1017.7
20260831171551 69 297 9.0 21.0 0.00 0.00 0.00 27 1017.7
20260831170046 68 271 7.0 15.0 0.00 0.00 0.00 33 1018.0
20260831164554 67 278 8.0 16.0 0.00 0.00 0.00 35 1017.9
20260831163051 66 307 8.0 16.0 0.00 0.00 0.00 36 1017.9
20260831161547 65 243 13.0 20.0 0.00 0.00 0.00 36 1017.9
20260831160047 64 252 11.0 19.0 0.00 0.00 0.00 37 1017.8
20260831154620 63 235 8.0 15.0 0.00 0.00 0.00 39 1017.8
20260831153138 62 293 8.0 19.0 0.00 0.00 0.00 42 1017.7
20260831151559 60 216 10.0 17.0 0.00 0.00 0.00 45 1017.9
20260831150054 58 235 10.0 18.0 0.00 0.00 0.00 46 1017.9
20260831144553 57 243 11.0 20.0 0.00 0.19 0.00 49 1017.7
20260831143100 55 236 12.0 20.0 0.00 0.19 0.00 51 1017.8
20260831141545 54 218 10.0 18.0 0.00 0.19 0.00 54 1017.8
20260831140044 52 244 7.0 13.0 0.00 0.19 0.00 56 1017.9
20260831134556 51 236 7.0 11.0 0.00 0.20 0.00 58 1017.7
20260831133054 51 253 3.0 7.0 0.00 0.20 0.00 58 1017.6
20260831131547 51 277 4.0 10.0 0.00 0.20 0.00 58 1017.6
20260831130049 50 0 3.0 9.0 0.00 0.20 0.00 60 1017.4
20260831124553 50 347 2.0 9.0 0.00 0.20 0.00 60 1017.2
20260831123048 50 338 4.0 9.0 0.00 0.20 0.00 60 1016.9
20260831121545 50 57 3.0 9.0 0.00 0.20 0.00 61 1016.7
20260831120057 50 0 3.0 6.0 0.00 0.20 0.00 60 1016.5
20260831114553 49 354 4.0 9.0 0.00 0.20 0.00 62 1016.7
20260831113107 47 71 1.0 4.0 0.00 0.20 0.00 68 1016.6
20260831111554 47 321 5.0 12.0 0.00 0.20 0.00 68 1016.5
20260831110056 48 318 6.0 15.0 0.00 0.20 0.00 66 1016.4
20260831104551 47 301 6.0 15.0 0.00 0.20 0.00 69 1016.5
20260831103052 47 282 5.0 18.0 0.00 0.20 0.00 69 1016.2
20260831101549 48 255 10.0 19.0 0.00 0.20 0.00 68 1016.1
20260831100053 48 281 6.0 15.0 0.00 0.20 0.00 67 1015.9